Terminal Aerodrome Forecast
Issued by NWS

Home | Current Version | Previous Version | Graphics & Text | Print | Product List | Glossary On
Versions: 1 2 3 4 5 6 7 8 9 10 11 12 13 14
000
FTUS43 KOAX 292300
TAFCDR
TAF
KCDR 292320Z 3000/3024 07011KT P6SM VCSH SCT050 BKN080
     FM300400 VRB04KT P6SM BKN080=

USA.gov is the U.S. government's official web portal to all federal, state and local government web resources and services.